Simultaneous Nadir Overpasses (SNOs) Predictions

Prediction of SNOs between GOES-16 and AQUA Satellite Orbit:

Table of predicted SNOs for the next 14.0 days since TLE Epoch: 9/26/2025
Index Date Time (GOES-16) GOES-16 Lat,Lon AQUA Lat,Lon Distance(km) Time Diff (sec)
1 09/28/2025 09:50:56 -0.06,-104.71 -0.12,-104.38 36.27 80
2 09/28/2025 22:10:08 0.06,-104.69 -0.87,-109.02 493.14 80
3 09/30/2025 21:52:04 0.06,-104.69 0.22,-103.94 84.81 80
4 10/01/2025 10:11:05 -0.06,-104.71 0.79,-108.54 435.98 80
5 10/03/2025 09:47:40 -0.07,-104.71 -0.31,-103.46 142.30 80
6 10/03/2025 22:06:51 0.06,-104.69 -0.70,-108.09 387.11 80
7 10/05/2025 21:48:45 0.07,-104.70 0.43,-103.01 192.35 80
8 10/06/2025 10:07:47 -0.06,-104.72 0.55,-107.60 327.71 80
9 10/08/2025 09:44:19 -0.06,-104.72 -0.52,-102.51 251.84 80
10 10/08/2025 22:06:09 0.05,-104.70 -0.50,-107.13 277.59 80
